{"data":{"norad_id":68060,"epoch":"2026-05-25T01:02:11.316192Z","epoch_age_seconds":81989,"freshness":"FRESH","line1":"1 68060U 26041W   26145.04318653  .00017860  00000+0  53857-3 0  9993","line2":"2 68060  53.1575  53.4283 0000996  61.4730 298.6372 15.34393754 13104","mean_motion":15.34393754,"eccentricity":9.96e-5,"inclination_deg":53.1575,"raan_deg":53.4283,"arg_perigee_deg":61.473,"mean_anomaly_deg":298.6372,"bstar":0.00053857,"rev_number":1310,"period_min":93.848140103938,"perigee_km":462.04045516142,"apogee_km":463.40315423531,"semimajor_km":6840.8588046984,"source":"CELESTRAK","updated_at":"2026-05-25T13:38:21.814877Z"}}